Location: Bauerbach
(50.4985°N, 10.3912°E)
Time: 00:03:11
(UTC+00:00)

Lacrosse 5 rocket - Pass Details

Date: 13 January 2026
Orbit: 401 x 481 km, 57.0° (Epoch: 16 February)

Event Time Altitude Azimuth Distance (km) Brightness Sun altitude
Exits shadow 05:21:26 30° 330° (NNW) 898 2.0 -17.3°
Maximum altitude 05:22:03 32° 350° (N) 860 2.1 -17.2°
Drops below altitude 10° 05:25:32 10° 56° (NE) 1,689 4.4 -16.6°
Sets 05:27:52 0° 66° (ENE) 2,571 5.6 -16.3°
